Starlink 33547

operational
NORAD ID: 62283 Int'l Des: 2024-237 Owner: SPXS Country: US Constellation: starlink
LEOCIRCULAR

Starlink 33547について

説明を読み込み中...

リアルタイム位置

3D地球を読み込み中...

次回通過

高度履歴

Altitude vs Time

uPlot chart will show altitude changes over time

軌道要素

1 62283U 24237S 25350.94711406 .00021995 00000-0 80612-3 0 9992
2 62283 42.9960 312.7381 0000389 248.8186 111.2624 15.27591415 58667
Epoch: Dec 16, 2025 • Age: 13 hours

現在のステータス

高度 486.1 km
速度 7.63 km/s
衛星直下点 41.94°N, 153.96°E
打ち上げ日 Dec 8, 2024
運用期間 1 years
タイプ internet

技術仕様

分類 Payload
質量 530.00 kg
乾燥質量 500.00 kg
総質量 530.00 kg
長さ 0.30 m
直径 4.10 m
スパン 29.00 m
形状 Box + pan
製造者 SPXS
バスタイプ Starlink V2MO
フェーズステータス In Orbit
所有者/国 SPXS/US

大規模コンステレーション

Loading constellations...